St. SADURNÍ D'OSORMORT (Osona)





Hora UTC 21:05
Temperatura 20.1 ºC
Humitat 85.2 %
Pressió 1017.7 hPa
Pluja 0.0 mm
Velocitat vent 0.0 km/h
Direcció vent NNE

Dades diàries 2024-07-24



Hora UTC (hivern +1h; estiu +2h)
Temperatura (ºC) Humitat (%) Pressió (hPa) Velocitat vent (km/h) Precipitació (mm)
Hora UTC Aire Humitat Pressió Vel. Dir. Vel. Max Dir. Intent. màx 5 min.
00:05 16.6 92.4 1021.6 0.0 NNE 0.0 NNE 0.0
00:10 16.5 92.3 1021.6 0.0 NNE 0.0 NNE 0.0
00:15 16.4 92.4 1021.6 0.0 NNE 0.0 NNE 0.0
00:20 16.4 92.6 1021.6 0.0 NNE 0.0 NNE 0.0
00:25 16.3 92.5 1021.6 0.0 NNE 0.0 NNE 0.0
00:30 16.3 92.6 1021.6 0.0 NNE 0.0 NNE 0.0
00:35 16.2 92.6 1021.5 0.0 NNE 0.0 NNE 0.0
00:40 16.3 93.0 1021.5 0.0 NNE 0.0 NNE 0.0
00:45 16.1 92.7 1021.4 0.0 NNE 0.0 NNE 0.0
00:50 16.0 92.7 1021.4 0.0 NNE 0.0 NNE 0.0
00:55 15.9 92.8 1021.4 0.0 NNE 0.0 NNE 0.0
01:00 15.9 92.9 1021.4 0.0 NNE 0.0 NNE 0.0
01:05 15.8 93.0 1021.3 0.0 NNE 0.0 NNE 0.0
01:10 15.7 93.0 1021.3 0.0 NNE 0.0 NNE 0.0
01:15 15.7 93.1 1021.3 0.0 NNE 0.0 NNE 0.0
01:20 15.6 93.1 1021.3 0.0 NNE 0.0 NNE 0.0
01:25 15.7 93.4 1021.4 0.0 NNE 0.0 NNE 0.0
01:30 15.7 93.3 1021.4 0.0 NNE 0.0 NNE 0.0
01:35 15.5 93.2 1021.4 0.0 NNE 0.0 NNE 0.0
01:40 15.6 93.5 1021.4 0.0 NNE 0.0 NNE 0.0
01:45 15.4 93.1 1021.3 0.0 NNE 0.0 NNE 0.0
01:50 15.3 93.2 1021.3 0.0 NNE 0.0 NNE 0.0
01:55 15.3 93.5 1021.3 0.0 NNE 0.0 NNE 0.0
02:00 15.2 93.4 1021.3 0.0 NNE 0.0 NNE 0.0
02:05 15.1 93.3 1021.2 0.0 NNE 0.0 NNE 0.0
02:10 15.0 93.4 1021.2 0.0 NNE 0.0 NNE 0.0
02:15 15.0 93.5 1021.1 0.0 NNE 0.0 NNE 0.0
02:20 14.9 93.4 1021.1 0.0 NNE 0.0 NNE 0.0
02:25 14.9 93.5 1021.0 0.0 NNE 0.0 NNE 0.0
02:30 14.8 93.5 1021.0 0.0 NNE 0.0 NNE 0.0
02:35 14.7 93.5 1020.9 0.0 NNE 0.0 NNE 0.0
02:40 14.8 93.8 1020.9 0.0 NNE 0.0 NNE 0.0
02:45 14.7 93.7 1020.9 0.0 NNE 0.0 NNE 0.0
02:50 14.7 93.7 1020.9 0.0 NNE 0.0 NNE 0.0
02:55 14.6 93.7 1020.9 0.0 NNE 0.0 NNE 0.0
03:00 14.5 93.8 1020.9 0.0 NNE 0.0 NNE 0.0
03:05 14.5 93.8 1020.8 0.0 NNE 0.0 NNE 0.0
03:10 14.4 93.7 1020.8 0.0 NNE 0.0 NNE 0.0
03:15 14.3 93.8 1020.7 0.0 NNE 0.0 NNE 0.0
03:20 14.3 93.9 1020.7 0.0 NNE 0.0 NNE 0.0
03:25 14.3 94.0 1020.7 0.0 NNE 0.0 NNE 0.0
03:30 14.2 93.8 1020.7 0.0 NNE 0.0 NNE 0.0
03:35 14.1 93.8 1020.7 0.0 NNE 0.0 NNE 0.0
03:40 14.0 93.9 1020.7 0.0 NNE 0.0 NNE 0.0
03:45 14.0 94.0 1020.8 0.0 NNE 0.0 NNE 0.0
03:50 14.0 93.9 1020.8 0.0 NNE 0.0 NNE 0.0
03:55 14.0 94.1 1020.8 0.0 NNE 0.0 NNE 0.0
04:00 13.9 94.0 1020.8 0.0 NNE 0.0 NNE 0.0
04:05 13.8 94.0 1020.9 0.0 NNE 0.0 NNE 0.0
04:10 13.8 94.1 1020.9 0.0 NNE 0.0 NNE 0.0
04:15 13.8 94.2 1020.9 0.0 NNE 0.0 NNE 0.0
04:20 13.7 94.0 1020.9 0.0 NNE 0.0 NNE 0.0
04:25 13.6 94.1 1020.9 0.0 NNE 0.0 NNE 0.0
04:30 13.6 94.2 1020.9 0.0 NNE 0.0 NNE 0.0
04:35 13.6 94.2 1020.9 0.0 NNE 0.0 NNE 0.0
04:40 13.5 94.2 1020.9 0.0 NNE 0.0 NNE 0.0
04:45 13.5 94.4 1020.9 0.0 NNE 0.0 NNE 0.0
04:50 13.4 94.2 1020.9 0.0 NNE 0.0 NNE 0.0
04:55 13.3 94.2 1020.8 0.0 NNE 0.0 NNE 0.0
05:00 13.3 94.3 1020.8 0.0 NNE 0.0 NNE 0.0
05:05 13.4 94.6 1020.8 0.0 NNE 0.0 NNE 0.0
05:10 13.4 94.4 1020.8 0.0 NNE 0.0 NNE 0.0
05:15 13.3 94.5 1020.7 0.0 NNE 0.0 NNE 0.0
05:20 13.3 94.5 1020.7 0.0 NNE 0.0 NNE 0.0
05:25 13.3 94.5 1020.8 0.0 NNE 0.0 NNE 0.0
05:30 13.4 94.7 1020.8 0.0 NNE 0.0 NNE 0.0
05:35 13.5 94.9 1020.8 0.0 NNE 0.0 NNE 0.0
05:40 13.7 95.0 1020.8 0.0 NNE 0.0 NNE 0.0
05:45 13.7 94.9 1020.8 0.0 NNE 0.0 NNE 0.0
05:50 13.8 94.9 1020.8 0.0 NNE 0.0 NNE 0.0
05:55 14.0 95.2 1020.8 0.0 NNE 0.0 NNE 0.0
06:00 14.2 95.3 1020.8 0.0 NNE 0.0 NNE 0.0
06:05 14.4 95.5 1020.7 0.0 NNE 0.0 NNE 0.0
06:10 14.8 95.7 1020.7 0.0 NNE 0.0 NNE 0.0
06:15 15.2 95.8 1020.7 0.0 NNE 0.0 NNE 0.0
06:20 15.4 95.8 1020.7 0.0 NNE 0.0 NNE 0.0
06:25 15.8 95.9 1020.7 0.0 NNE 0.0 NNE 0.0
06:30 16.1 95.9 1020.7 0.0 NNE 0.0 NNE 0.0
06:35 16.4 95.9 1020.7 0.0 NNE 0.0 NNE 0.0
06:40 16.8 96.0 1020.7 0.0 NNE 0.0 NNE 0.0
06:45 17.2 95.9 1020.7 0.0 NNE 0.0 NNE 0.0
06:50 17.4 95.3 1020.7 0.0 NNE 0.0 NNE 0.0
06:55 17.7 95.2 1020.6 0.0 NNE 0.0 NE 0.0
07:00 18.0 95.0 1020.6 0.0 NNE 0.0 NE 0.0
07:05 18.4 94.9 1020.6 0.0 NNE 0.0 NE 0.0
07:10 18.7 94.8 1020.6 0.0 NNE 0.0 NE 0.0
07:15 19.3 94.7 1020.6 0.0 NNE 0.0 NE 0.0
07:20 19.7 94.2 1020.6 0.0 NNE 0.0 NE 0.0
07:25 20.1 93.8 1020.6 0.0 NNE 0.0 NE 0.0
07:30 20.6 93.2 1020.6 0.0 NNE 0.0 NE 0.0
07:35 21.1 92.3 1020.5 0.6 W 3.4 W 0.0
07:40 21.5 89.6 1020.5 2.5 WSW 6.1 W 0.0
07:45 22.2 86.2 1020.5 1.0 W 6.1 W 0.0
07:50 22.9 82.5 1020.5 0.0 NNE 0.0 W 0.0
07:55 23.7 79.1 1020.4 0.2 WNW 3.4 W 0.0
08:00 24.6 74.1 1020.4 0.2 ENE 3.4 ENE 0.0
08:05 25.3 67.5 1020.3 0.7 ENE 6.1 ENE 0.0
08:10 25.7 67.2 1020.3 0.0 E 3.4 E 0.0
08:15 26.0 66.5 1020.3 0.0 NNE 0.0 0.0
08:20 26.3 66.5 1020.3 0.0 NNE 0.0 NW 0.0
08:25 26.4 66.2 1020.2 0.5 S 3.4 SSE 0.0
08:30 26.8 62.0 1020.2 0.0 NNE 0.0 W 0.0
08:35 26.7 63.9 1020.1 0.6 SSE 6.1 SSE 0.0
08:40 26.6 61.1 1020.1 0.2 NW 3.4 NW 0.0
08:45 27.0 59.4 1020.0 0.7 E 6.1 SE 0.0
08:50 27.8 54.1 1020.0 0.5 ENE 6.1 E 0.0
08:55 28.4 52.6 1019.9 1.6 ENE 6.1 E 0.0
09:00 28.6 52.6 1019.9 0.6 ESE 6.1 ESE 0.0
09:05 28.8 53.6 1019.8 1.5 WNW 6.1 W 0.0
09:10 29.0 50.4 1019.8 1.2 SSW 8.8 SE 0.0
09:15 28.6 48.5 1019.7 3.2 E 8.8 ESE 0.0
09:20 28.8 47.3 1019.7 1.8 SSW 8.8 SSE 0.0
09:25 29.0 47.4 1019.6 1.6 SSE 6.1 WNW 0.0
09:30 29.2 46.3 1019.6 1.0 ESE 6.1 E 0.0
09:35 29.5 45.6 1019.6 1.8 ESE 6.1 ESE 0.0
09:40 29.4 47.1 1019.6 0.6 NW 6.1 W 0.0
09:45 29.8 43.7 1019.5 1.5 WSW 8.8 S 0.0
09:50 30.0 44.2 1019.5 1.3 W 8.8 NW 0.0
09:55 30.3 43.0 1019.4 2.0 NNE 8.8 NW 0.0
10:00 30.2 43.6 1019.4 1.5 NW 8.8 W 0.0
10:05 30.4 41.7 1019.4 1.4 N 6.1 NNE 0.0
10:10 30.6 42.8 1019.4 3.1 WNW 19.6 NW 0.0
10:15 30.8 41.5 1019.3 4.3 W 11.5 S 0.0
10:20 30.8 40.4 1019.3 4.0 WNW 11.5 W 0.0
10:25 30.8 40.9 1019.2 2.0 SE 8.8 ENE 0.0
10:30 30.8 42.2 1019.2 3.2 NW 11.5 W 0.0
10:35 31.0 43.5 1019.0 1.7 SSE 6.1 SSW 0.0
10:40 31.1 43.8 1019.0 3.5 SE 8.8 SE 0.0
10:45 31.4 41.3 1019.0 1.3 SE 6.1 NNW 0.0
10:50 31.5 42.2 1019.0 0.6 WNW 6.1 NW 0.0
10:55 31.6 41.7 1018.9 2.8 S 14.2 WSW 0.0
11:00 31.4 37.8 1018.9 0.8 WNW 8.8 SW 0.0
11:05 31.7 40.2 1018.8 2.1 NNW 8.8 N 0.0
11:10 31.8 42.1 1018.8 2.1 SSE 6.1 SSE 0.0
11:15 31.8 38.5 1018.8 2.5 E 8.8 ENE 0.0
11:20 31.8 41.4 1018.8 2.3 S 14.2 W 0.0
11:25 31.8 40.0 1018.7 2.0 ESE 6.1 N 0.0
11:30 32.0 42.0 1018.7 1.1 SSW 6.1 N 0.0
11:35 32.0 39.3 1018.7 2.0 SE 6.1 SE 0.0
11:40 32.3 39.9 1018.7 1.4 W 8.8 W 0.0
11:45 32.5 40.4 1018.5 2.0 SSE 8.8 SSE 0.0
11:50 32.3 38.1 1018.5 2.2 ENE 8.8 E 0.0
11:55 32.5 36.9 1018.4 4.9 WNW 27.7 WNW 0.0
12:00 32.6 39.4 1018.4 2.5 S 8.8 NW 0.0
12:05 32.5 39.4 1018.3 5.0 SE 11.5 SSE 0.0
12:10 32.6 40.3 1018.3 1.9 SE 6.1 SSE 0.0
12:15 32.8 37.8 1018.1 2.7 E 8.8 E 0.0
12:20 32.7 36.3 1018.1 3.5 E 8.8 E 0.0
12:25 32.7 39.0 1017.9 1.6 S 6.1 W 0.0
12:30 32.8 37.7 1017.9 1.2 SE 6.1 SSE 0.0
12:35 32.8 36.5 1017.9 1.3 ESE 8.8 ESE 0.0
12:40 32.8 38.2 1017.9 2.7 S 8.8 SE 0.0
12:45 32.9 37.9 1017.8 2.5 SE 6.1 SE 0.0
12:50 33.0 38.4 1017.8 1.6 SSE 6.1 S 0.0
12:55 33.2 38.9 1017.6 1.8 SSE 6.1 SE 0.0
13:00 33.4 39.8 1017.6 2.4 SE 8.8 SSE 0.0
13:05 33.2 43.7 1017.5 3.0 SSE 8.8 SSE 0.0
13:10 33.2 41.5 1017.5 1.9 WSW 8.8 WNW 0.0
13:15 33.4 45.0 1017.5 4.2 SE 11.5 SSE 0.0
13:20 32.3 48.5 1017.5 4.9 E 14.2 NE 0.0
13:25 31.7 50.3 1017.6 3.0 E 11.5 E 0.0
13:30 31.3 52.7 1017.6 2.4 ESE 8.8 E 0.0
13:35 30.5 52.7 1017.7 6.3 ESE 14.2 ENE 0.0
13:40 30.3 55.5 1017.7 2.1 ESE 11.5 E 0.0
13:45 30.0 57.3 1017.5 1.5 SSE 6.1 SE 0.0
13:50 29.7 58.4 1017.5 1.9 SE 6.1 SE 0.0
13:55 29.5 57.1 1017.5 1.3 SE 6.1 SE 0.0
14:00 29.2 58.3 1017.5 0.5 SE 6.1 E 0.0
14:05 29.0 60.2 1017.5 1.4 SSE 6.1 SSE 0.0
14:10 28.8 57.6 1017.5 2.3 SSE 6.1 SE 0.0
14:15 29.1 57.2 1017.5 1.0 SSW 6.1 SW 0.0
14:20 29.6 55.5 1017.5 1.2 SE 6.1 SSE 0.0
14:25 30.0 54.6 1017.4 1.0 SE 6.1 SSE 0.0
14:30 30.2 53.7 1017.4 1.6 S 6.1 SE 0.0
14:35 30.4 51.4 1017.3 3.6 ESE 14.2 ENE 0.0
14:40 30.8 51.2 1017.3 1.3 SE 6.1 E 0.0
14:45 30.6 52.3 1017.2 1.6 SSE 8.8 SSE 0.0
14:50 30.3 52.8 1017.2 1.2 S 6.1 SSE 0.0
14:55 30.3 52.9 1017.2 1.2 SE 6.1 E 0.0
15:00 30.8 51.7 1017.2 0.9 SE 6.1 E 0.0
15:05 30.8 51.3 1017.2 0.7 SW 3.4 SW 0.0
15:10 30.9 51.4 1017.2 0.4 SSW 6.1 W 0.0
15:15 30.8 51.1 1017.2 0.7 SW 11.5 WNW 0.0
15:20 30.8 52.4 1017.2 1.9 ESE 8.8 ESE 0.0
15:25 30.9 50.4 1017.1 3.0 NNW 8.8 NE 0.0
15:30 31.1 50.3 1017.1 4.0 ESE 11.5 SSE 0.0
15:35 30.6 51.6 1017.0 3.4 ESE 14.2 E 0.0
15:40 30.2 52.5 1017.0 2.9 ESE 14.2 E 0.0
15:45 30.4 51.0 1016.9 2.5 E 8.8 NNE 0.0
15:50 30.6 49.9 1016.9 4.8 ESE 11.5 E 0.0
15:55 30.7 52.3 1016.8 3.4 ESE 14.2 E 0.0
16:00 30.6 51.8 1016.8 2.1 ESE 11.5 E 0.0
16:05 30.3 53.3 1016.8 3.2 ESE 11.5 SE 0.0
16:10 30.3 51.7 1016.8 2.7 ESE 11.5 ESE 0.0
16:15 30.3 51.6 1016.7 0.9 E 8.8 E 0.0
16:20 30.5 51.8 1016.7 2.4 ESE 8.8 ESE 0.0
16:25 30.5 51.8 1016.7 2.5 E 8.8 E 0.0
16:30 30.4 54.2 1016.7 1.8 ENE 8.8 NE 0.0
16:35 30.3 55.7 1016.7 1.3 SE 8.8 SE 0.0
16:40 30.0 57.6 1016.7 0.0 NNE 0.0 SW 0.0
16:45 29.9 58.5 1016.7 0.0 NNE 0.0 SW 0.0
16:50 29.8 58.6 1016.7 0.0 NNE 0.0 SW 0.0
16:55 29.8 59.3 1016.6 0.0 NNE 0.0 SW 0.0
17:00 29.4 59.9 1016.6 0.0 NNE 0.0 SW 0.0
17:05 29.4 59.9 1016.7 0.0 NNE 0.0 SW 0.0
17:10 29.1 61.7 1016.7 0.0 NNE 0.0 SW 0.0
17:15 28.9 61.0 1016.7 0.0 SSW 3.4 SW 0.0
17:20 29.0 59.8 1016.7 2.9 E 8.8 ESE 0.0
17:25 29.0 60.0 1016.7 3.1 ESE 8.8 E 0.0
17:30 28.8 61.3 1016.7 2.1 ENE 11.5 ESE 0.0
17:35 28.7 62.3 1016.7 0.9 E 6.1 NE 0.0
17:40 28.5 62.5 1016.7 2.3 ESE 11.5 ESE 0.0
17:45 28.4 62.8 1016.7 1.7 E 8.8 ESE 0.0
17:50 28.3 63.0 1016.7 2.8 E 8.8 ENE 0.0
17:55 28.2 63.1 1016.8 2.4 E 8.8 SE 0.0
18:00 28.1 63.2 1016.8 2.5 ESE 6.1 SE 0.0
18:05 27.8 65.5 1016.8 0.4 ESE 6.1 E 0.0
18:10 27.5 65.7 1016.8 1.3 E 8.8 E 0.0
18:15 27.4 66.1 1016.8 0.0 NNE 0.0 E 0.0
18:20 27.3 67.0 1016.8 0.0 NNE 0.0 E 0.0
18:25 27.0 67.9 1016.9 0.0 NNE 0.0 E 0.0
18:30 26.7 69.1 1016.9 0.0 NNE 0.0 E 0.0
18:35 26.5 69.5 1017.0 0.0 NNE 0.0 E 0.0
18:40 26.3 70.5 1017.0 0.0 NNE 0.0 E 0.0
18:45 26.1 70.4 1017.1 0.0 NNE 0.0 E 0.0
18:50 25.8 71.5 1017.1 0.0 NNE 0.0 E 0.0
18:55 25.6 71.8 1017.1 0.0 NNE 0.0 E 0.0
19:00 25.3 72.6 1017.1 0.0 NNE 0.0 E 0.0
19:05 25.1 73.3 1017.2 0.0 NNE 0.0 E 0.0
19:10 24.8 74.8 1017.2 0.0 NNE 0.0 E 0.0
19:15 24.5 75.6 1017.3 0.0 NNE 0.0 E 0.0
19:20 24.3 76.6 1017.3 0.0 NNE 0.0 E 0.0
19:25 23.9 77.5 1017.3 0.0 NNE 0.0 E 0.0
19:30 23.7 78.3 1017.3 0.0 NNE 0.0 E 0.0
19:35 23.4 79.5 1017.3 0.0 NNE 0.0 E 0.0
19:40 23.0 79.2 1017.3 0.0 NNE 0.0 E 0.0
19:45 22.9 79.8 1017.4 0.0 NNE 0.0 E 0.0
19:50 22.6 81.0 1017.4 0.0 NNE 0.0 E 0.0
19:55 22.4 81.6 1017.5 0.0 NNE 0.0 E 0.0
20:00 22.1 82.1 1017.5 0.0 NNE 0.0 E 0.0
20:05 21.9 82.6 1017.5 0.0 NNE 0.0 E 0.0
20:10 21.9 82.2 1017.5 0.0 NNE 0.0 E 0.0
20:15 21.7 82.5 1017.6 0.0 NNE 0.0 E 0.0
20:20 21.5 82.9 1017.6 0.0 NNE 0.0 E 0.0
20:25 21.5 82.8 1017.6 0.0 NNE 0.0 E 0.0
20:30 21.3 83.1 1017.6 0.0 NNE 0.0 E 0.0
20:35 21.2 83.4 1017.7 0.0 NNE 0.0 ENE 0.0
20:40 20.9 83.7 1017.7 0.0 NNE 0.0 ENE 0.0
20:45 20.7 84.0 1017.7 0.0 NNE 0.0 ENE 0.0
20:50 20.6 84.3 1017.7 0.0 NNE 0.0 ENE 0.0
20:55 20.4 84.5 1017.7 0.0 NNE 0.0 ENE 0.0
21:00 20.2 84.8 1017.7 0.0 NNE 0.0 ENE 0.0
21:05 20.1 85.2 1017.7 0.0 NNE 0.0 ENE 0.0
Màxima 33.5 96.0 1021.6 6.3 ESE 27.7 WNW 0.0
Mínima 13.3 36.3 1016.6
Total 0.0